Weather History for KBCB - April, 2014

Change the Weather History Date:

Tuesday, April 15, 2014

  Actual Average Record
Temperature  
Mean Temperature 44 °F 51 °F  
Max Temperature 60 °F 63 °F 82 °F (2006)
Min Temperature 28 °F 38 °F 22 °F (1973)
Degree Days  
Heating Degree Days 21 14  
Month to date heating degree days 178 248  
Since 1 July heating degree days 5146 5023  
Cooling Degree Days 0 0  
Month to date cooling degree days 0 0  
Year to date cooling degree days 0 0  
Moisture  
Dew Point 45 °F    
Average Humidity 85    
Maximum Humidity 100    
Minimum Humidity 69    
Precipitation  
Precipitation 0.53 in 0.11 in 1.32 in (2007)
Month to date precipitation 1.97 1.75  
Year to date precipitation 10.02 11.28  
Snow  
Snow T in - - ()
Month to date snowfall T  
Since 1 July snowfall 34.4  
Snow Depth 0.00 in    
Sea Level Pressure  
Sea Level Pressure 29.82 in    
Wind  
Wind Speed 9 mph (WNW)    
Max Wind Speed 23 mph    
Max Gust Speed 38 mph    
Visibility 8 miles    
Events Rain , Snow    
T = Trace of Precipitation, MM = Missing Value Source: NWS Daily Summary

Daily Weather History Graph

Daily Weather History Graph

Search for Another Location

Airport or City:

Trip Planner

Search our weather history database for the weather conditions in past years. The results will help you decide how hot, cold, wet, or windy it might be!

Date:

Astronomy

Apr. 15, 2014 Rise Set
Actual Time 6:47 AM EDT 7:56 PM EDT
Civil Twilight 6:20 AM EDT 8:23 PM EDT
Nautical Twilight 5:48 AM EDT 8:55 PM EDT
Astronomical Twilight 5:15 AM EDT 9:29 PM EDT
Moon 8:35 PM EDT (4/15) 6:54 AM EDT (4/15)
Length of Visible Light 14h 03m
Length of Day
13h 09m
Full, 100% of the Moon is Illuminated
Apr 15
Full
Apr 22
Last Quarter
Apr 29
New
May 6
First Quarter
May 14
Full

Hourly Weather History & Observations

Time (EDT) Temp. Windchill Dew Point Humidity Pressure Visibility Wind Dir Wind Speed Gust Speed Precip Events Conditions
12:15 AM 60.8 °F - 60.8 °F 100% 29.83 in 7.0 mi Calm Calm - N/A Rain Rain
12:35 AM 60.8 °F - 60.8 °F 100% 29.82 in 10.0 mi SE 3.5 mph - N/A   Overcast
1:15 AM 60.8 °F - 60.8 °F 100% 29.79 in 10.0 mi Calm Calm - N/A   Overcast
1:35 AM 60.8 °F - 60.8 °F 100% 29.78 in 5.0 mi Calm Calm - N/A Rain Rain
1:55 AM 60.8 °F - 60.8 °F 100% 29.78 in 3.0 mi Calm Calm - 0.12 in Rain Heavy Rain
2:15 AM 59.0 °F - 59.0 °F 100% 29.78 in 5.0 mi Calm Calm - 0.01 in Rain Rain
2:35 AM 60.8 °F - 60.8 °F 100% 29.76 in 5.0 mi Calm Calm - 0.04 in Rain Rain
2:55 AM 60.8 °F - 60.8 °F 100% 29.76 in 5.0 mi Calm Calm - 0.04 in Rain Rain
3:15 AM 60.8 °F - 60.8 °F 100% 29.76 in 4.0 mi Calm Calm - N/A Rain Rain
3:35 AM 60.8 °F - 60.8 °F 100% 29.75 in 5.0 mi Calm Calm - 0.01 in Rain Light Rain
3:55 AM 60.8 °F - 60.8 °F 100% 29.73 in 5.0 mi Calm Calm - 0.01 in   Drizzle
4:15 AM 59.0 °F - 59.0 °F 100% 29.73 in 1.5 mi Calm Calm - N/A Rain Light Rain
4:35 AM 59.0 °F - 59.0 °F 100% 29.72 in 0.5 mi Calm Calm - N/A Rain Rain
4:55 AM 57.2 °F - 57.2 °F 100% 29.72 in 1.0 mi Calm Calm - N/A Rain Light Rain
5:15 AM 59.0 °F - 59.0 °F 100% 29.72 in 10.0 mi South 4.6 mph - N/A Rain Light Rain
5:35 AM 59.0 °F - 59.0 °F 100% 29.72 in 10.0 mi South 4.6 mph - N/A Rain Light Rain
5:55 AM 59.0 °F - 59.0 °F 100% 29.71 in 7.0 mi South 4.6 mph - N/A Rain Rain
6:15 AM 59.0 °F - 59.0 °F 100% 29.70 in 10.0 mi SSW 4.6 mph - N/A Rain Light Rain
6:35 AM 59.0 °F - 59.0 °F 100% 29.70 in 10.0 mi South 3.5 mph - N/A Rain Rain
6:55 AM 59.0 °F - 59.0 °F 100% 29.70 in 10.0 mi SSW 4.6 mph - N/A Rain Rain
7:15 AM 59.0 °F - 59.0 °F 100% 29.71 in 7.0 mi SSW 4.6 mph - N/A Rain Rain
7:35 AM 59.0 °F - 59.0 °F 100% 29.70 in 5.0 mi South 4.6 mph - 0.02 in Rain Rain
7:55 AM 59.0 °F - 59.0 °F 100% 29.69 in 10.0 mi Calm Calm - 0.02 in Rain Light Rain
8:15 AM 59.0 °F - 59.0 °F 100% 29.67 in 10.0 mi Calm Calm - N/A   Light Drizzle
8:35 AM 60.8 °F - 60.8 °F 100% 29.67 in 10.0 mi Calm Calm - N/A   Scattered Clouds
8:55 AM 60.8 °F - 60.8 °F 100% 29.69 in 10.0 mi West 3.5 mph - N/A Rain Rain
9:15 AM 60.8 °F - 60.8 °F 100% 29.68 in 7.0 mi West 3.5 mph - N/A   Drizzle
9:35 AM 60.8 °F - 60.8 °F 100% 29.67 in 5.0 mi West 4.6 mph - N/A   Light Drizzle
9:55 AM 60.8 °F - 60.8 °F 100% 29.68 in 10.0 mi WNW 16.1 mph 23.0 mph N/A   Mostly Cloudy
10:15 AM 51.8 °F - 51.8 °F 100% 29.70 in 4.0 mi WNW 13.8 mph 21.9 mph 0.01 in Rain Heavy Rain
10:35 AM 50.0 °F - 50.0 °F 100% 29.71 in 10.0 mi WNW 13.8 mph 19.6 mph 0.01 in   Overcast
10:55 AM 50.0 °F - 48.2 °F 94% 29.72 in 10.0 mi WNW 11.5 mph 19.6 mph 0.01 in   Overcast
11:15 AM 48.2 °F - 46.4 °F 93% 29.72 in 10.0 mi WNW 10.4 mph 21.9 mph N/A   Overcast
11:35 AM 48.2 °F - 46.4 °F 93% 29.74 in 10.0 mi West 11.5 mph 18.4 mph N/A   Overcast
11:55 AM 48.2 °F - 44.6 °F 87% 29.75 in 10.0 mi WNW 11.5 mph 18.4 mph N/A   Overcast
12:35 PM 46.4 °F 41.9 °F 44.6 °F 93% 29.77 in 5.0 mi WNW 9.2 mph 17.3 mph N/A Rain Rain
12:55 PM 44.6 °F 38.8 °F 42.8 °F 93% 29.77 in 10.0 mi WNW 11.5 mph 18.4 mph N/A   Overcast
1:35 PM 42.8 °F 36.2 °F 39.2 °F 87% 29.79 in 10.0 mi NW 12.7 mph 20.7 mph N/A   Overcast
2:15 PM 42.8 °F 37.5 °F 39.2 °F 87% 29.81 in 10.0 mi West 9.2 mph 17.3 mph N/A   Light Drizzle
2:35 PM 41.0 °F 33.5 °F 37.4 °F 87% 29.82 in 10.0 mi WNW 13.8 mph 19.6 mph N/A   Overcast
2:55 PM 42.8 °F 37.5 °F 39.2 °F 87% 29.81 in 7.0 mi WNW 9.2 mph 25.3 mph N/A Rain Light Rain
3:15 PM 39.2 °F 33.6 °F 37.4 °F 93% 29.81 in 7.0 mi WNW 8.1 mph - N/A Rain Rain
3:35 PM 37.4 °F 31.4 °F 37.4 °F 100% 29.83 in 7.0 mi WNW 8.1 mph 17.3 mph N/A Rain Rain
3:55 PM 37.4 °F 29.3 °F 35.6 °F 93% 29.84 in 4.0 mi WNW 12.7 mph 21.9 mph N/A Snow Light Snow
4:15 PM 35.6 °F 28.0 °F 35.6 °F 100% 29.84 in 10.0 mi WNW 10.4 mph 20.7 mph N/A Snow Light Snow
4:35 PM 37.4 °F 29.8 °F 33.8 °F 87% 29.83 in 10.0 mi WNW 11.5 mph 18.4 mph N/A   Overcast
4:55 PM 37.4 °F 29.3 °F 33.8 °F 87% 29.84 in 10.0 mi WNW 12.7 mph 21.9 mph N/A   Overcast
5:15 PM 37.4 °F 28.2 °F 33.8 °F 87% 29.85 in 10.0 mi NW 16.1 mph 23.0 mph N/A   Mostly Cloudy
5:35 PM 37.4 °F 29.8 °F 32.0 °F 81% 29.85 in 10.0 mi NW 11.5 mph 19.6 mph N/A   Overcast
5:55 PM 37.4 °F 28.9 °F 32.0 °F 81% 29.86 in 10.0 mi WNW 13.8 mph 21.9 mph N/A   Overcast
6:15 PM 37.4 °F 28.5 °F 32.0 °F 81% 29.87 in 10.0 mi NW 15.0 mph 24.2 mph N/A   Overcast
6:35 PM 35.6 °F 24.0 °F 30.2 °F 81% 29.88 in 10.0 mi NW 23.0 mph 33.4 mph N/A   Overcast
6:55 PM 35.6 °F 26.2 °F 28.4 °F 75% 29.91 in 10.0 mi NW 15.0 mph 29.9 mph N/A   Overcast
7:15 PM 35.6 °F 26.2 °F 28.4 °F 75% 29.91 in 10.0 mi NW 15.0 mph 29.9 mph N/A   Overcast
7:35 PM 33.8 °F 23.2 °F 28.4 °F 81% 29.93 in 10.0 mi NW 17.3 mph 34.5 mph N/A   Overcast
7:55 PM 33.8 °F 23.5 °F 26.6 °F 75% 29.94 in 10.0 mi NW 16.1 mph 32.2 mph N/A   Overcast
8:15 PM 33.8 °F 22.8 °F 26.6 °F 75% 29.96 in 10.0 mi NW 18.4 mph 32.2 mph N/A   Overcast
8:35 PM 33.8 °F 23.2 °F 26.6 °F 75% 29.97 in 10.0 mi NW 17.3 mph 26.5 mph N/A   Overcast
8:55 PM 33.8 °F 22.2 °F 26.6 °F 75% 29.98 in 10.0 mi NW 20.7 mph 31.1 mph N/A   Overcast
9:15 PM 32.0 °F 21.2 °F 24.8 °F 75% 30.01 in 10.0 mi NW 16.1 mph 24.2 mph N/A   Overcast
9:35 PM 32.0 °F 21.2 °F 24.8 °F 75% 30.02 in 10.0 mi WNW 16.1 mph 31.1 mph N/A   Overcast
9:55 PM 30.2 °F 18.9 °F 23.0 °F 75% 30.03 in 10.0 mi NW 16.1 mph 29.9 mph N/A   Overcast
10:15 PM 30.2 °F 17.8 °F 21.2 °F 69% 30.05 in 10.0 mi NNW 19.6 mph 38.0 mph N/A   Scattered Clouds
10:35 PM 30.2 °F 18.5 °F 21.2 °F 69% 30.05 in 10.0 mi NW 17.3 mph 26.5 mph N/A   Scattered Clouds
10:55 PM 30.2 °F 19.8 °F 21.2 °F 69% 30.06 in 10.0 mi NW 13.8 mph 26.5 mph N/A   Mostly Cloudy
11:15 PM 30.2 °F 18.1 °F 21.2 °F 69% 30.07 in 10.0 mi NW 18.4 mph 26.5 mph N/A   Overcast
11:35 PM 30.2 °F 21.3 °F 21.2 °F 69% 30.06 in 10.0 mi NW 10.4 mph 19.6 mph N/A   Overcast
11:55 PM 30.2 °F 18.5 °F 21.2 °F 69% 30.07 in 10.0 mi NW 17.3 mph 24.2 mph N/A   Mostly Cloudy